Location: Aufkirchen
(47.9603°N, 11.3653°E)
Time: 00:31:14
(UTC+01:00)

Vanguard 1 - All Passes

Search period start: 06 December 2020 00:00
Search period end: 16 December 2020 00:00
Orbit: 650 x 3833 km, 34.2° (Epoch: 05 December)

Date Brightness Start Highest point End Pass type
(mag) Time Alt. Az. Time Alt. Az. Time Alt. Az.
06 Dec - 02:52:03 10° SSE 02:53:12 11° SSE 02:54:27 10° SE visible
06 Dec - 05:07:39 10° SW 05:12:05 25° S 05:18:27 10° ESE visible
06 Dec - 07:26:18 10° WSW 07:32:02 24° S 07:40:44 10° SE daylight
06 Dec - 09:48:39 10° SW 09:53:06 13° SSW 09:58:32 10° S daylight
07 Dec - 03:11:08 10° S 03:13:37 14° SSE 03:16:27 10° SE visible
07 Dec - 05:28:10 10° SW 05:32:41 25° S 05:39:12 10° SE visible
07 Dec - 07:47:23 10° WSW 07:52:48 20° SSW 08:00:36 10° SSE daylight
08 Dec - 03:31:03 10° SSW 03:34:04 17° SSE 03:37:42 10° SE visible
08 Dec - 05:48:50 10° SW 05:53:19 23° S 05:59:46 10° SE visible
08 Dec - 08:08:53 10° SW 08:13:36 16° SSW 08:19:54 10° SSE daylight
09 Dec - 03:51:16 10° SW 03:54:35 19° SSE 03:58:40 10° SE visible
09 Dec - 06:09:38 10° SW 06:14:00 21° S 06:20:07 10° SE visible
09 Dec - 08:31:20 10° SW 08:34:24 12° SSW 08:38:01 10° S daylight
10 Dec - 04:11:42 10° SW 04:15:08 19° S 04:19:27 10° SE visible
10 Dec - 06:30:41 10° SW 06:34:43 18° S 06:40:08 10° SSE visible
11 Dec - 02:14:51 10° S 02:16:41 12° SSE 02:18:34 10° SE night (unlit)
11 Dec - 04:32:17 10° SW 04:35:43 19° S 04:40:03 10° SE visible
11 Dec - 06:52:08 10° SW 06:55:27 14° SSW 06:59:35 10° SSE visible
12 Dec - 02:34:44 10° SSW 02:37:12 14° SSE 02:39:48 10° SE night (unlit)
12 Dec - 04:53:04 10° SW 04:56:21 17° S 05:00:26 10° SE visible
12 Dec - 07:15:06 10° SSW 07:16:11 10° SSW 07:17:22 10° S visible
13 Dec - 02:55:01 10° SSW 02:57:44 16° S 03:00:40 10° SE visible
13 Dec - 05:14:05 10° SW 05:16:59 15° S 05:20:30 10° SSE visible
14 Dec - 00:58:18 10° S 00:59:13 10° SSE 01:00:06 10° SSE night (unlit)
14 Dec - 03:15:32 10° SW 03:18:18 16° S 03:21:19 10° SE visible
14 Dec - 05:35:36 10° SW 05:37:38 12° SSW 05:39:57 10° S visible
15 Dec - 01:17:36 10° SSW 01:19:47 13° S 01:21:51 10° SE night (unlit)
15 Dec - 03:36:15 10° SW 03:38:53 15° S 03:41:45 10° SSE visible
